Wind_Speed
77 73 68 62 59 58 57 55 51 49 49 48 48 48 48 49 49 49 51 53 55 55 52 50 49 49 51 53 56 57 58 60 60 58 58 58 58 56 55 54 54 53 53 53 55 56 58 59 60 61 62 63 64 64 62 62 60 59 57 55 52 53 52 49 48 49 48 46 43 41 39 37 37 37 37 37 35 34 33 30 28 27 28 30 32 33
78 72 66 63 62 61 60 58 54 52 51 49 46 46 46 46 47 49 51 53 54 55 54 53 51 51 52 55 56 56 56 56 56 57 58 58 57 56 54 53 52 51 52 52 53 54 54 56 57 59 61 63 64 65 64 62 62 61 59 57 54 53 53 52 51 51 50 50 47 44 42 41 40 38 37 38 36 34 35 35 32 29 28 30 32 34
76 70 68 67 66 63 61 59 57 56 54 51 48 46 45 45 46 48 51 52 53 54 55 55 54 53 54 55 54 54 54 53 53 53 54 55 56 56 54 53 52 52 52 52 51 51 51 52 54 57 59 62 64 65 64 63 63 63 61 59 56 54 53 52 52 51 51 51 49 46 44 42 41 40 40 41 38 36 37 37 36 33 31 32 33 35
75 71 71 70 68 65 62 60 59 58 56 53 50 47 45 45 46 48 51 52 52 53 54 55 55 54 52 51 51 51 52 51 51 51 51 52 54 55 54 52 52 53 53 52 50 49 49 50 52 55 58 61 63 64 62 62 63 63 60 58 57 54 53 52 51 50 50 50 49 46 45 43 41 41 42 43 41 40 40 40 40 39 36 36 37 38
76 74 74 72 69 67 63 61 60 59 58 54 52 49 47 46 46 49 52 54 54 53 53 54 55 52 49 48 48 49 49 49 49 49 49 50 52 53 53 52 52 53 53 52 50 49 48 49 51 53 56 58 60 60 59 59 60 61 58 56 55 54 51 50 50 49 49 49 47 45 44 43 42 41 41 42 44 44 45 44 44 43 42 40 40 39
78 76 76 74 71 67 64 62 60 60 58 56 53 50 49 48 48 50 53 55 55 54 54 54 52 49 47 46 46 47 47 47 47 46 46 47 49 51 52 52 52 52 53 52 51 50 49 49 50 52 53 55 56 56 55 55 56 56 53 51 51 51 49 48 48 48 47 47 45 43 43 44 44 44 45 47 48 48 48 48 48 47 45 44 42 41
80 78 77 75 72 69 65 63 61 61 59 57 55 53 52 50 49 52 53 54 54 53 53 53 49 46 46 46 46 47 46 45 45 44 45 46 46 49 51 52 52 52 52 53 52 51 50 49 50 51 51 52 52 52 52 52 52 51 47 45 46 47 46 46 46 47 47 45 43 42 44 45 46 48 51 52 52 50 50 49 49 48 47 46 44 42
81 80 78 75 73 69 66 63 62 61 60 58 56 56 54 53 53 53 53 53 53 53 53 51 47 44 44 46 48 47 45 44 44 44 45 46 45 46 49 51 52 52 52 53 53 52 51 50 49 49 50 50 48 48 48 48 48 46 42 42 43 43 44 44 44 45 44 42 39 39 43 46 46 48 51 52 52 51 49 49 49 48 48 47 45 44
82 81 78 76 73 69 66 64 64 63 61 58 59 59 57 57 57 55 53 52 53 53 52 49 45 43 42 45 47 44 42 43 43 44 45 46 45 45 47 50 51 52 52 53 54 53 51 49 48 48 48 48 46 45 44 45 44 43 41 41 42 42 42 41 42 43 41 40 38 35 36 42 44 44 46 47 49 49 49 48 48 48 48 47 46 46
84 83 81 78 74 70 67 66 66 65 62 61 63 62 61 61 60 57 53 52 53 51 48 47 44 41 40 43 43 40 40 41 42 44 45 45 44 45 46 48 50 51 52 54 54 53 51 50 48 47 47 47 45 43 43 43 42 41 42 42 42 42 41 40 40 40 39 39 41 36 32 37 42 42 42 43 45 47 47 47 47 46 46 45 45 46
86 85 84 79 75 72 70 70 68 65 65 66 66 63 63 63 61 58 54 53 51 45 42 45 44 40 39 39 39 39 41 43 45 46 45 44 44 44 45 48 50 51 52 54 54 52 51 51 48 46 45 45 44 43 41 41 40 40 42 42 41 41 41 40 40 40 39 40 42 40 36 38 42 43 43 43 44 44 45 46 46 45 43 42 43 44
89 87 83 79 77 76 74 73 70 67 68 69 67 65 65 64 61 58 55 53 47 38 39 44 44 41 37 35 36 40 44 46 46 44 44 44 43 43 45 47 50 51 52 53 53 52 52 51 49 46 45 44 43 41 40 39 39 39 40 41 41 41 40 40 40 40 40 41 41 41 40 42 44 46 46 46 45 44 44 45 45 44 42 42 42 42
89 86 83 81 80 78 76 74 71 69 70 69 67 66 65 63 61 57 53 49 41 36 41 45 44 41 36 35 38 41 45 47 45 43 43 43 42 42 45 47 49 50 51 52 53 52 52 51 50 47 44 43 42 40 38 38 38 37 38 39 40 41 39 40 41 40 40 41 41 41 43 46 47 48 48 47 46 46 46 46 46 45 44 44 44 43
90 87 85 83 81 78 75 72 68 67 68 67 65 63 61 59 56 52 49 46 41 39 43 44 42 40 36 36 39 42 45 47 46 44 41 40 41 42 44 45 47 48 50 51 53 53 52 51 51 48 45 43 41 40 38 36 36 36 37 37 39 40 41 42 42 41 40 41 42 43 45 48 49 48 48 48 48 48 49 50 50 50 49 48 47 46
90 86 83 80 78 76 73 69 66 67 67 65 64 62 59 56 52 50 49 46 42 42 44 42 38 37 37 36 39 42 45 46 45 42 39 38 40 41 43 44 44 46 49 51 53 54 53 51 51 50 47 44 42 40 39 37 36 35 36 37 38 40 42 43 43 42 42 42 44 45 47 48 48 48 48 48 48 49 50 52 52 53 52 51 50 49
89 85 81 79 77 75 72 70 69 70 69 66 65 62 58 54 52 51 50 47 45 44 45 39 34 35 38 38 40 42 43 43 42 40 39 39 40 43 45 44 45 46 48 50 52 53 53 52 50 50 48 46 43 41 40 38 37 36 35 36 37 39 40 42 42 43 43 44 44 45 46 47 47 47 48 48 49 49 50 52 53 53 52 52 51 50
89 85 83 81 79 76 74 72 71 70 68 66 63 59 56 55 54 52 50 49 48 45 43 37 32 35 38 39 41 40 40 41 41 41 41 41 41 43 45 47 47 47 47 49 51 52 53 52 50 50 49 48 45 43 42 40 38 37 36 36 36 38 39 39 40 41 43 44 44 45 45 46 47 47 47 48 48 49 50 51 52 52 52 51 50 50
88 86 84 82 79 77 75 74 73 71 68 65 61 58 59 58 55 53 51 49 47 45 42 37 33 34 37 39 39 37 39 42 42 41 41 41 41 42 45 48 49 48 47 48 49 50 52 52 51 50 50 49 47 45 43 41 40 38 37 36 36 36 37 38 39 40 41 43 43 44 45 45 46 46 46 46 46 47 48 49 50 51 52 51 51 50
90 88 85 83 81 79 78 76 74 72 69 65 62 61 61 58 53 51 49 47 46 43 40 37 34 35 38 39 38 38 41 43 42 41 41 41 42 42 44 48 50 49 47 47 48 49 50 51 52 51 50 49 48 46 44 42 41 39 38 38 36 35 36 37 38 39 40 41 42 42 43 44 44 44 44 44 44 44 45 46 47 49 50 50 49 49
91 89 87 85 83 82 81 77 73 70 68 66 65 63 61 57 54 51 48 47 46 43 41 38 34 35 38 40 39 40 42 42 42 42 42 41 41 41 43 47 49 49 47 47 48 49 49 50 51 51 50 49 48 46 45 43 42 40 40 39 38 36 36 36 36 37 38 39 39 40 41 42 42 43 43 43 43 43 44 45 46 47 48 48 47 47
91 89 88 87 86 84 79 73 69 68 67 65 63 62 60 57 54 51 50 48 46 44 42 39 35 35 38 41 40 39 40 41 41 42 42 41 41 41 42 45 48 49 48 48 48 47 48 48 49 50 50 49 48 47 45 44 43 42 41 40 39 38 37 36 36 36 36 37 37 38 39 40 41 41 42 43 43 44 45 46 48 48 48 48 48 48
90 89 89 88 84 79 74 71 70 70 67 64 62 61 60 56 53 50 48 47 46 45 43 39 37 36 38 41 41 39 39 39 41 42 42 42 42 42 42 44 47 48 47 48 47 47 47 47 47 49 49 49 48 47 45 44 43 42 42 41 40 39 38 38 37 37 36 36 36 36 37 38 39 40 41 43 44 46 48 49 50 50 50 50 50 51
91 90 89 85 81 77 75 74 74 73 70 68 66 63 61 57 53 50 47 46 46 45 42 40 38 37 39 41 42 41 39 39 41 43 43 43 43 42 42 43 45 46 47 47 46 46 46 46 46 47 48 48 48 47 46 44 43 43 42 41 41 40 39 39 39 38 37 36 36 35 36 37 37 39 40 42 44 46 48 49 50 50 51 51 52 52
91 90 87 84 82 81 79 78 77 75 72 69 66 64 60 57 54 51 49 48 47 45 42 40 38 37 38 41 43 42 40 40 42 42 42 44 43 42 41 41 42 44 45 46 46 45 45 45 45 46 47 48 48 47 46 45 44 43 43 42 41 40 40 40 40 39 38 37 37 37 37 38 38 39 40 41 43 45 47 48 49 50 51 51 52 53
90 89 87 85 84 82 81 80 78 74 70 66 64 62 59 57 55 53 51 49 47 45 42 40 39 38 38 40 43 42 40 40 41 41 42 43 42 40 40 40 41 43 44 45 45 45 45 45 45 46 47 47 47 46 45 45 44 44 43 42 41 41 41 40 40 39 39 38 39 39 39 40 40 41 42 44 45 47 48 50 51 51 52 53 54 55
89 88 85 83 80 77 75 73 70 67 65 63 62 61 59 58 55 53 50 48 47 45 41 40 40 38 37 39 42 42 41 39 40 41 42 42 41 40 39 38 39 41 42 44 45 45 45 45 45 46 46 46 46 45 45 45 44 44 44 43 42 42 42 41 41 40 40 39 39 40 41 41 42 44 45 46 48 50 51 52 53 54 55 56 57 58
85 83 81 78 75 72 69 67 66 65 64 63 62 61 59 57 55 52 50 48 47 45 43 43 42 38 36 38 41 43 42 39 39 41 42 43 43 41 40 38 38 39 41 42 43 44 45 46 46 46 46 46 46 45 45 45 45 45 44 44 44 44 43 43 43 42 42 41 41 42 42 43 44 45 47 48 50 51 52 53 55 56 56 57 58 58
81 79 77 76 74 73 71 69 68 67 65 64 62 61 59 57 54 52 50 49 48 47 46 46 43 39 37 37 41 44 43 40 39 41 43 44 44 42 40 40 40 40 41 41 42 43 45 47 47 47 47 46 46 45 45 46 46 46 45 44 44 44 44 44 44 44 43 43 44 44 45 45 46 47 48 49 51 52 53 54 55 56 57 57 57 57
78 77 76 75 74 73 72 71 69 68 66 65 63 61 59 56 53 51 49 49 49 48 48 47 43 39 37 36 40 44 44 41 39 41 44 44 43 41 41 41 41 41 42 42 42 43 45 47 48 48 47 47 46 45 45 45 45 45 45 45 45 45 44 45 45 44 44 45 45 46 46 47 48 48 49 50 51 52 53 54 54 55 55 55 56 56
76 75 74 73 72 71 71 70 69 68 67 65 63 61 59 57 53 50 49 49 49 49 49 46 43 40 37 34 37 42 44 42 40 40 42 42 42 42 41 41 42 43 44 44 43 43 44 46 47 48 48 47 47 46 44 43 43 43 44 44 44 44 44 44 45 44 44 45 45 46 46 47 49 50 50 51 51 52 52 53 53 53 54 54 55 54
73 72 72 71 71 70 69 69 68 67 66 65 63 62 59 56 53 50 50 50 50 50 50 47 44 40 37 33 33 37 42 43 41 40 41 42 42 43 42 42 42 43 45 45 45 44 44 45 46 47 47 48 47 46 44 43 42 42 42 43 44 44 43 44 44 44 44 45 45 45 46 47 48 49 49 50 50 50 51 51 51 52 52 52 52 52
71 70 69 69 69 69 68 67 67 66 65 64 63 61 58 55 52 52 52 52 52 52 50 47 44 40 37 34 32 33 37 41 41 40 40 41 42 43 43 43 43 43 45 45 46 46 45 44 45 45 46 47 46 45 44 43 42 42 41 42 43 43 43 43 43 43 44 44 44 45 45 46 46 47 48 48 48 49 49 49 50 50 50 50 50 50
70 69 68 67 67 66 66 65 64 64 64 63 61 59 56 54 52 53 54 54 53 51 49 46 43 40 39 37 36 34 35 38 40 40 41 41 43 44 44 44 43 43 43 43 43 43 43 43 43 42 42 44 45 44 43 43 42 42 42 42 43 44 44 44 43 43 44 44 45 45 45 45 46 46 46 46 46 47 48 48 48 48 49 50 50 51
71 69 67 66 65 65 64 63 63 63 62 61 58 56 55 53 52 52 53 52 51 49 47 45 42 41 40 39 38 37 37 39 41 41 41 41 42 43 44 44 44 43 42 42 42 42 42 41 39 38 39 43 45 45 43 42 42 42 43 43 42 42 42 41 41 42 43 44 44 44 44 45 45 45 44 45 45 46 48 48 49 51 52 52 53 54
71 69 67 65 64 63 63 62 62 61 60 58 57 55 53 52 51 50 50 49 48 47 45 43 42 41 41 39 37 37 37 39 41 41 41 41 41 43 44 45 46 45 45 44 44 44 44 42 39 38 40 43 45 44 43 42 42 42 43 42 42 40 38 38 39 40 42 42 42 42 41 41 43 44 44 43 44 46 47 50 52 54 55 55 56 57
70 68 66 64 63 63 62 62 61 59 58 57 56 55 54 52 50 49 49 48 47 46 45 44 43 42 41 40 38 36 36 37 39 41 42 42 42 43 46 48 48 48 47 46 45 45 44 43 42 40 40 42 43 44 43 43 42 43 43 43 43 42 41 41 41 41 40 40 39 40 39 39 42 44 43 43 44 46 48 51 53 55 56 57 58 58
70 68 66 64 64 63 62 61 60 59 58 58 57 56 55 53 51 50 50 49 48 47 46 45 44 43 42 41 39 38 37 38 39 41 44 45 45 47 49 50 50 49 47 46 45 44 43 43 43 42 41 41 43 44 44 44 44 44 44 44 44 44 43 43 42 40 39 39 40 41 40 39 40 43 44 44 44 45 47 50 53 55 56 57 58 58
69 67 66 65 64 63 62 61 61 61 60 59 58 56 55 54 52 52 51 51 50 49 49 48 46 45 44 43 42 41 40 40 42 44 47 48 48 49 50 50 50 49 48 46 45 45 44 43 42 42 41 40 41 43 45 45 46 47 47 45 44 44 44 45 44 41 37 38 41 41 39 38 40 41 42 41 42 44 47 51 54 56 56 56 58 60
69 67 66 66 65 64 63 62 62 61 60 59 58 57 56 55 54 53 53 52 52 52 51 50 48 47 46 45 44 42 42 43 46 48 50 50 51 50 50 50 50 49 48 47 46 45 44 42 42 42 41 39 40 43 45 45 46 48 48 47 45 44 45 45 45 43 40 40 40 37 35 37 39 40 41 43 46 49 52 54 55 57 58 59 60 61
69 68 67 66 65 64 64 63 63 62 61 59 59 58 58 57 56 55 54 53 53 52 51 50 49 48 47 46 45 43 44 46 49 51 51 51 51 51 51 50 50 49 48 47 46 45 43 42 42 42 42 40 41 42 44 45 46 47 47 47 46 45 46 45 44 44 45 45 44 41 39 40 42 42 44 47 50 52 55 56 56 58 61 63 64 65
69 68 67 66 65 65 64 64 63 62 61 60 60 59 59 58 57 56 55 53 53 53 51 50 49 48 47 46 46 45 46 48 50 51 52 51 50 51 51 51 50 50 50 48 47 46 45 44 44 43 42 41 41 41 44 46 46 46 46 47 46 45 45 45 44 45 47 47 47 46 45 45 44 45 47 51 54 57 59 60 61 62 65 66 67 67
67 67 66 66 65 65 64 64 63 62 61 60 60 60 59 58 57 56 55 54 54 53 51 50 48 47 46 46 46 47 47 48 50 51 51 50 50 50 51 51 51 51 51 50 49 48 47 46 44 43 43 43 42 43 44 45 45 45 46 47 47 46 45 44 45 45 46 47 47 47 47 46 46 47 52 57 60 61 62 62 63 64 64 65 66 66
65 66 65 65 65 64 63 63 62 61 61 60 60 59 58 57 56 55 55 55 54 53 51 50 49 47 47 47 47 47 47 48 50 51 50 50 50 50 50 51 51 51 52 51 50 49 48 47 45 45 44 44 43 44 44 44 44 45 45 46 47 47 46 46 45 45 46 46 47 47 48 48 48 50 54 58 60 60 60 61 61 61 62 62 63 64
64 64 65 64 64 63 63 62 62 61 61 60 60 59 58 57 56 55 55 55 54 53 52 50 49 48 48 48 47 48 48 49 50 50 50 50 50 51 51 51 51 51 52 52 52 51 49 48 46 46 46 45 45 44 44 44 44 44 45 45 46 47 48 48 47 47 46 47 47 48 49 50 51 53 55 58 59 60 61 62 62 63 63 64 65 66
63 63 63 63 63 62 62 62 61 61 60 60 59 59 58 58 57 56 55 55 54 53 52 51 51 50 49 49 49 49 50 50 50 51 51 50 50 50 50 50 50 50 51 52 52 52 51 49 48 47 47 47 46 46 46 45 45 45 45 45 45 46 47 48 49 49 49 49 49 49 50 51 53 55 56 58 60 61 63 64 64 65 65 66 66 66
62 62 62 63 63 62 62 62 61 61 61 60 60 59 59 58 57 56 56 55 55 53 52 52 51 51 50 50 50 51 51 51 51 51 51 50 50 50 50 50 49 49 50 52 52 52 52 51 50 49 49 49 49 49 48 48 47 46 46 45 44 43 44 45 47 48 49 50 51 52 53 54 55 56 57 58 60 61 62 62 63 64 65 65 65 66
59 60 61 62 62 62 62 62 62 62 61 61 60 60 59 58 57 57 56 56 55 54 53 52 52 51 51 51 51 52 52 52 51 51 51 50 50 51 50 49 49 49 50 51 51 52 52 52 51 51 50 50 50 50 50 49 48 47 47 46 44 43 43 44 44 45 46 48 49 51 53 54 56 57 58 59 60 61 62 62 63 63 64 64 64 65
57 58 59 59 60 60 60 61 61 61 61 61 60 59 58 57 57 56 56 55 55 54 53 52 51 51 51 52 52 52 52 52 51 51 52 51 51 51 50 49 48 48 49 50 50 51 51 51 51 51 51 51 51 51 50 50 49 49 48 47 46 45 45 45 45 45 45 46 47 49 51 52 54 56 57 58 58 59 60 60 61 61 62 62 63 63
55 57 58 58 59 60 61 61 61 61 61 61 60 58 57 57 57 56 55 55 54 53 52 51 51 51 51 51 51 52 52 51 52 52 52 52 51 50 49 48 48 48 48 49 49 50 50 51 51 51 51 51 51 51 51 50 50 50 50 49 49 48 47 47 46 46 46 46 47 48 49 51 53 54 56 57 57 58 58 59 60 60 61 62 63 63
51 53 55 57 59 59 60 61 62 61 60 59 58 57 57 56 56 55 55 54 54 53 53 52 51 50 51 51 51 51 51 51 51 52 52 50 49 48 48 47 47 47 48 48 49 50 50 51 51 52 52 52 52 51 50 50 50 50 50 51 50 49 49 48 48 48 48 49 49 49 49 50 52 53 55 56 57 58 58 59 60 60 61 62 63 64
46 48 51 53 55 56 57 58 58 57 57 56 56 55 55 54 54 54 53 53 53 53 53 52 51 51 51 50 50 50 50 50 51 51 51 49 47 46 45 45 47 47 48 49 49 50 51 51 52 52 52 52 51 51 51 51 50 50 50 51 51 50 50 49 49 50 50 50 50 51 51 51 51 52 52 53 54 56 57 57 58 59 60 61 61 61
Wind_Direction
231 231 232 233 233 233 233 232 230 229 230 230 230 230 230 230 230 231 233 234 235 236 234 232 230 230 231 232 234 234 235 236 236 237 237 237 238 239 240 241 241 241 241 241 240 239 240 241 242 243 244 245 246 247 247 247 246 247 247 248 249 249 248 250 251 249 246 246 247 249 252 254 255 257 261 264 270 276 282 290 294 291 287 286 288 289
229 230 231 231 230 230 229 229 227 227 227 228 228 228 229 229 230 232 234 235 235 235 234 232 230 230 230 232 233 235 236 237 237 236 236 236 238 238 239 239 240 240 241 240 240 239 240 241 242 243 244 244 246 247 247 247 247 247 247 247 248 250 249 247 248 249 248 248 249 251 253 254 255 258 263 267 270 274 279 289 294 292 289 287 288 289
227 228 229 230 229 229 228 227 226 226 227 226 226 227 227 228 229 231 234 235 236 235 234 233 231 230 231 233 235 236 237 238 238 237 237 236 237 237 237 237 238 239 240 240 240 240 240 241 241 242 243 244 245 247 247 247 248 248 248 248 248 250 250 247 247 248 248 248 249 251 254 254 252 255 264 269 270 272 277 286 291 291 290 289 288 288
225 225 227 228 228 228 228 226 226 227 228 227 227 227 227 227 228 230 233 235 235 236 235 234 232 232 233 235 236 237 237 238 238 238 237 235 235 235 236 235 236 237 238 239 239 239 240 240 241 242 242 244 245 246 247 247 247 248 249 250 249 249 250 247 245 245 244 246 248 252 254 252 251 255 263 267 268 272 276 282 288 288 288 290 290 289
222 222 224 226 226 227 227 225 225 227 228 228 228 227 227 227 227 229 232 233 233 234 235 234 233 232 234 236 237 238 238 238 238 238 238 236 234 233 233 234 234 235 236 238 238 238 239 239 240 242 242 244 245 247 248 247 247 248 250 251 250 249 249 247 243 241 241 244 247 249 251 251 252 255 259 262 266 271 276 279 285 287 287 289 291 290
220 221 222 223 224 225 225 225 225 226 227 227 227 227 227 227 227 229 232 233 234 234 235 235 234 233 233 235 237 238 238 238 238 239 239 239 237 235 233 232 233 233 235 236 237 237 238 240 242 243 244 245 247 248 249 248 247 249 250 250 250 250 249 245 241 238 238 242 245 247 249 251 253 255 257 261 266 271 274 277 282 285 285 288 291 291
219 220 221 222 222 222 222 223 223 225 226 226 227 226 226 227 227 229 232 233 234 235 236 237 235 232 231 233 235 235 235 236 237 238 239 239 238 236 234 232 232 232 233 234 235 236 238 241 243 245 246 246 248 250 250 249 247 248 248 247 249 250 248 244 241 237 237 240 245 248 251 254 256 257 258 262 266 269 273 275 279 282 283 285 289 290
218 219 221 221 221 220 220 221 222 224 225 225 226 225 225 226 227 229 231 233 234 234 235 236 234 232 231 232 233 234 234 234 234 235 237 238 237 236 234 232 231 231 232 233 234 235 237 240 243 246 248 248 249 251 251 250 248 246 244 244 246 245 245 244 242 239 238 240 246 250 254 256 258 258 259 261 265 268 272 274 277 280 282 283 286 288
218 219 220 220 221 220 219 220 221 222 223 223 224 225 224 225 226 227 229 232 233 233 234 235 235 233 232 233 234 235 236 235 235 235 236 238 237 235 233 231 231 231 231 232 233 234 235 239 242 245 248 250 250 251 252 250 248 244 240 240 243 243 242 242 241 240 238 237 239 243 251 256 258 259 259 261 264 268 272 275 278 280 282 282 284 286
216 217 218 219 219 218 218 219 220 220 221 222 223 223 224 225 226 228 229 231 234 234 235 236 236 233 233 235 235 235 237 237 236 235 236 237 238 236 232 230 229 230 231 232 233 233 235 237 240 243 247 250 250 251 250 249 248 243 239 240 242 243 242 241 240 238 235 234 233 235 243 252 256 259 260 263 266 269 273 276 279 281 283 283 283 284
215 215 217 217 217 217 216 217 218 219 219 221 222 222 223 225 226 228 229 232 235 236 237 237 236 233 232 235 235 234 235 235 234 233 233 235 236 236 233 229 228 228 230 232 232 232 234 237 239 241 245 248 249 249 249 248 246 243 242 243 243 243 243 243 242 238 234 233 235 238 242 247 252 257 262 266 268 271 273 276 278 281 284 286 286 285
214 214 215 216 217 216 216 216 216 217 219 221 221 222 223 225 227 228 229 233 236 238 239 237 234 231 231 234 235 233 234 234 234 234 234 234 234 234 233 229 227 228 230 232 232 232 234 237 238 239 242 245 247 247 247 247 246 243 243 244 244 244 244 244 244 241 238 237 239 242 242 244 251 258 263 267 269 271 274 276 278 281 285 287 288 288
215 214 214 215 216 217 216 216 216 217 219 221 222 223 225 226 228 230 232 236 238 237 239 237 233 228 227 231 233 232 233 234 233 232 233 235 234 233 232 229 227 227 230 232 232 231 233 237 238 238 240 243 245 245 246 246 246 244 243 243 243 244 242 242 244 244 242 240 241 242 244 248 254 259 263 266 268 271 273 275 277 280 283 285 287 288
215 214 213 214 216 217 217 218 218 220 223 224 224 226 228 230 232 234 235 236 235 235 238 238 232 227 225 230 232 232 233 234 232 230 230 233 235 235 234 231 228 228 230 233 233 232 232 236 238 237 238 241 243 244 245 246 246 245 244 243 242 242 241 243 246 247 244 242 242 243 246 252 257 260 263 265 268 270 272 274 276 278 280 283 285 287
215 215 214 214 216 218 219 219 219 221 224 225 225 227 228 230 232 233 234 234 233 234 237 237 232 226 225 230 233 232 232 234 234 232 229 230 234 235 235 232 230 229 230 232 233 233 232 234 238 238 238 240 242 243 244 244 245 245 244 244 243 243 243 244 246 248 247 246 246 247 250 255 258 261 263 266 268 270 272 274 275 277 279 281 284 285
213 214 214 214 215 216 218 218 219 220 222 223 224 226 227 229 230 229 229 229 230 232 235 235 231 225 223 228 233 232 232 233 235 234 230 227 229 233 234 233 230 230 230 231 233 234 233 233 236 239 240 240 241 242 243 244 244 245 245 245 245 245 246 247 248 249 250 250 250 252 254 257 259 262 264 266 269 270 272 273 275 276 278 281 282 283
211 211 211 212 213 214 216 217 219 221 223 223 224 225 226 226 227 228 228 227 228 230 233 232 227 223 222 227 232 232 231 232 232 233 231 228 227 230 233 233 232 232 231 231 232 234 235 234 235 239 241 242 241 242 244 245 245 246 246 247 247 247 248 249 250 251 252 252 253 255 256 258 261 263 265 268 270 271 272 274 275 276 278 280 281 282
210 210 210 211 212 213 214 216 218 220 221 223 224 224 225 225 225 226 226 227 228 230 232 230 225 221 220 226 231 232 231 230 230 230 231 230 229 229 231 233 233 233 233 232 233 234 236 235 235 237 241 242 243 244 245 246 247 248 249 249 249 249 250 250 251 252 253 255 256 257 258 260 262 264 266 268 270 272 273 275 276 277 279 281 282 283
209 209 209 210 210 212 213 215 216 218 219 220 220 222 223 225 226 227 227 227 228 230 231 229 226 221 218 223 228 229 229 229 228 228 229 231 231 230 231 233 233 233 233 234 235 235 236 237 237 237 240 243 244 245 247 248 249 250 251 251 251 252 253 253 254 254 256 257 258 258 259 260 262 264 265 267 269 270 272 274 275 277 279 280 282 283
209 210 209 209 210 211 212 214 216 218 220 220 219 220 221 222 223 225 225 226 226 227 229 228 225 222 218 220 224 227 229 229 228 228 228 230 232 233 233 234 234 233 233 235 236 237 238 238 238 239 240 242 244 246 248 249 251 252 253 253 253 254 255 256 257 257 258 259 260 260 261 262 263 264 265 266 267 268 269 270 272 274 276 277 278 279
208 210 210 210 210 211 211 213 215 218 221 222 223 224 224 224 223 223 223 223 223 225 227 227 225 223 220 218 221 226 229 230 229 228 229 230 232 234 236 236 235 233 233 235 237 238 240 241 240 241 241 242 243 245 248 250 251 253 254 254 254 255 255 257 258 259 259 261 262 262 263 264 265 265 266 266 266 267 267 268 269 271 272 273 274 274
207 209 210 211 211 211 211 212 215 217 218 219 221 223 225 225 225 226 225 224 224 224 227 227 225 224 221 218 220 224 227 229 228 226 227 229 230 232 235 237 236 234 233 234 237 239 241 242 242 242 242 243 243 245 247 249 251 253 254 254 255 255 255 256 257 259 260 261 262 263 264 265 265 266 266 267 267 268 269 269 270 271 271 272 272 273
205 207 210 211 211 210 210 211 214 215 215 215 216 218 220 222 223 225 225 225 224 225 227 228 227 226 224 220 219 221 224 226 227 225 224 227 229 230 233 236 238 238 235 234 236 239 241 243 244 244 244 243 244 245 247 248 250 252 253 254 254 255 255 256 257 258 259 261 262 263 264 265 265 266 267 267 268 269 269 270 271 271 272 273 273 275
205 206 208 209 209 209 209 210 212 213 214 215 216 217 217 218 220 221 222 222 223 224 226 227 228 229 227 223 220 221 223 226 228 226 223 226 229 230 232 235 238 241 240 236 235 237 240 242 244 244 244 244 244 245 246 248 250 251 252 253 254 254 255 255 256 257 258 260 261 263 264 265 266 267 268 269 269 270 270 271 272 273 274 276 277 279
204 206 207 208 209 210 209 210 212 213 214 215 216 217 217 218 219 220 220 219 220 222 225 227 229 230 229 225 220 220 224 227 230 229 225 226 228 230 232 234 237 240 242 240 237 236 238 241 243 244 244 245 245 245 246 248 249 250 251 251 252 253 254 255 255 257 258 260 261 263 264 266 267 268 270 271 272 273 273 274 276 277 279 281 282 284
204 205 206 208 210 213 214 215 215 215 216 217 217 217 218 219 220 221 221 219 218 220 222 226 230 230 230 226 221 220 223 227 230 230 228 226 226 228 230 232 235 238 240 241 240 239 238 240 242 244 245 245 246 246 247 247 248 249 250 251 251 252 253 254 255 256 258 260 262 264 266 267 269 271 272 273 275 276 278 279 281 283 284 285 287 289
204 205 207 207 208 211 214 216 217 217 217 218 219 219 219 219 220 221 221 219 218 219 221 225 229 230 230 227 221 219 222 225 227 229 229 228 226 226 228 230 233 237 240 241 242 242 242 241 242 242 243 244 245 246 247 247 248 249 250 251 251 252 253 255 256 258 259 260 262 265 267 269 271 273 275 276 278 280 281 283 285 286 287 289 290 292
203 204 206 206 206 207 208 210 213 216 217 217 218 219 219 220 220 220 220 219 218 218 221 226 228 229 230 227 222 220 221 223 226 228 229 229 227 226 228 230 232 235 240 242 242 242 242 243 243 243 243 243 244 245 246 247 249 250 251 252 253 253 254 256 258 259 261 262 264 266 268 270 273 275 277 279 280 282 284 285 287 289 290 291 292 293
201 203 204 205 207 207 207 208 210 212 215 216 216 217 218 219 220 221 220 219 218 219 223 227 230 230 231 229 225 222 222 223 225 227 229 230 230 228 230 233 234 235 237 240 241 242 242 242 243 243 244 244 244 245 246 248 249 251 252 253 254 255 255 257 258 260 262 263 265 267 269 271 273 275 277 279 281 283 285 287 288 290 291 292 293 293
199 201 203 205 206 208 209 209 210 211 213 214 215 216 217 218 219 219 220 219 218 220 223 226 228 230 231 232 229 225 224 225 227 228 230 230 231 230 232 235 237 236 236 238 240 242 243 244 244 244 245 245 245 245 246 247 249 250 251 253 254 255 256 257 259 261 262 264 266 268 270 271 273 275 277 279 281 283 285 287 289 290 291 291 292 292
198 200 202 203 205 207 209 210 211 212 213 214 215 216 217 217 217 217 217 217 217 218 221 223 226 228 230 231 232 229 228 228 229 230 230 229 230 230 231 234 237 237 237 238 240 243 245 245 245 245 245 246 246 246 246 247 249 250 252 253 254 255 256 257 259 260 262 264 266 268 269 271 273 275 277 279 281 283 285 286 288 289 290 290 290 291
197 199 201 202 204 206 208 210 212 213 214 214 215 216 216 217 217 217 215 215 215 217 219 222 225 228 229 230 230 229 229 230 231 233 233 231 230 230 230 232 235 237 238 239 242 244 246 246 246 247 248 248 248 248 248 248 250 252 254 255 255 256 256 257 259 260 261 263 265 267 269 271 273 275 277 279 281 283 284 285 286 287 287 287 288 290
195 198 200 201 203 205 207 209 211 213 214 215 216 216 217 217 217 218 217 217 217 218 220 222 225 227 230 231 230 227 227 228 231 233 234 234 233 231 231 232 234 237 238 239 242 244 246 246 247 248 249 249 248 249 249 250 251 253 255 257 258 259 260 261 262 263 264 264 266 268 270 272 274 276 277 279 280 282 283 284 285 284 284 285 288 290
195 196 198 200 202 204 206 208 211 213 215 215 216 217 218 218 218 219 220 220 221 221 222 224 227 229 231 234 234 230 227 227 230 232 233 235 235 235 233 233 234 236 237 238 239 242 244 246 247 247 248 250 250 249 250 251 252 253 255 257 259 261 263 264 265 265 266 266 268 270 272 274 274 275 276 277 279 281 282 283 283 283 284 286 288 289
195 196 197 199 201 203 206 208 210 213 214 215 216 217 218 219 220 221 222 223 223 223 223 224 226 229 231 234 236 235 231 229 231 234 234 235 236 237 236 235 234 234 235 236 238 240 243 246 247 247 249 253 253 252 252 252 252 253 254 255 256 258 258 260 262 264 267 269 272 273 274 275 276 275 276 278 280 282 282 282 283 283 284 286 287 289
195 196 197 198 200 202 205 207 209 211 213 215 216 216 217 217 218 219 221 222 222 223 223 224 225 228 231 233 235 235 233 229 230 233 235 235 235 235 235 235 235 234 234 235 237 240 244 247 249 250 251 253 253 252 252 251 251 252 253 253 254 254 255 258 260 263 266 269 272 273 274 276 278 278 278 279 282 283 283 282 283 283 284 286 287 289
195 196 197 199 201 202 204 206 208 210 212 214 215 216 216 216 216 217 218 219 219 220 221 222 224 226 228 230 230 231 230 228 227 230 234 235 234 233 233 233 234 234 234 234 236 239 243 247 249 250 250 251 251 251 251 251 251 251 252 254 255 256 257 258 259 261 265 267 268 269 271 273 276 279 281 282 283 283 282 281 281 282 284 287 289 290
195 197 198 200 201 202 203 205 207 209 211 213 214 215 215 215 215 216 217 217 217 218 218 219 220 222 224 225 226 227 227 226 226 228 232 234 234 234 233 234 234 234 234 234 235 237 240 244 247 249 250 251 252 253 252 251 251 252 253 254 256 257 257 257 258 259 260 262 264 267 269 270 273 277 280 280 279 278 277 277 279 281 284 286 288 290
195 197 199 201 202 203 204 206 207 209 211 213 214 215 215 215 214 215 216 217 217 217 218 219 220 222 224 226 227 227 227 226 226 227 230 233 234 234 234 234 234 234 234 235 235 237 240 243 246 248 249 248 249 251 253 252 252 252 253 255 256 256 256 256 257 257 255 253 255 259 262 264 266 268 270 271 273 273 273 275 278 281 283 284 286 288
195 197 199 201 203 204 205 207 208 209 211 213 214 215 215 215 214 215 216 217 219 220 220 221 223 225 227 229 231 230 228 227 227 228 230 233 235 236 235 235 235 235 235 235 236 237 239 242 244 247 248 248 247 249 253 254 254 253 254 255 256 256 256 256 256 256 254 252 252 252 251 253 257 260 264 266 268 269 269 271 274 277 280 282 284 286
198 199 200 202 204 205 206 208 209 210 211 213 214 215 216 216 216 216 216 218 220 222 223 225 226 228 230 232 233 232 231 230 230 230 231 233 236 238 238 237 236 236 236 235 236 237 238 240 242 245 247 248 248 248 251 253 254 254 254 255 256 256 257 257 256 255 255 255 255 254 253 253 254 256 258 260 261 263 266 268 271 275 278 281 284 286
201 202 203 204 206 207 208 210 211 212 213 215 216 217 218 219 218 218 218 219 221 224 225 227 229 230 232 234 235 235 234 233 232 232 232 233 235 238 240 240 238 237 236 236 236 237 237 239 241 244 246 247 248 249 251 253 255 256 255 255 256 257 258 258 257 256 256 256 256 255 255 254 252 251 253 256 259 262 266 269 273 276 278 281 283 285
202 203 205 206 208 209 211 212 213 214 215 217 218 220 221 221 221 221 221 222 223 225 226 228 230 232 234 235 236 237 236 235 234 233 233 234 235 237 239 240 240 238 237 236 236 237 238 239 241 243 245 247 249 250 252 254 256 257 257 257 257 257 257 258 258 258 257 258 258 257 256 255 253 252 254 259 262 265 268 271 273 276 278 279 281 282
202 204 205 207 209 211 212 213 215 216 216 218 219 221 222 223 224 224 224 225 226 227 228 230 232 234 235 236 236 236 236 235 235 234 234 234 236 236 237 239 240 240 239 237 236 236 237 239 241 243 245 246 248 250 252 254 255 257 258 258 259 258 257 257 258 258 258 258 259 258 258 257 256 256 258 261 264 267 268 270 272 274 276 278 279 281
203 205 206 208 210 212 214 215 217 217 218 219 220 222 223 224 225 226 227 228 229 230 231 233 234 235 236 235 235 234 234 234 234 234 234 235 237 238 238 239 240 241 241 240 239 238 238 239 240 243 245 246 247 249 250 252 253 255 256 258 259 260 259 258 258 259 259 259 260 260 260 260 260 260 261 263 265 267 269 270 272 274 276 277 279 281
205 205 206 208 210 212 214 216 217 218 219 220 221 223 225 226 227 229 230 231 232 233 234 235 237 237 236 234 233 232 232 233 233 234 235 236 238 239 240 239 240 240 240 240 240 240 240 241 241 243 244 246 247 248 249 250 252 254 256 257 259 260 260 260 260 261 261 262 262 262 263 263 263 263 264 265 267 268 270 271 273 274 276 278 280 281
206 207 208 210 211 213 215 216 218 220 221 222 223 224 226 228 230 231 233 235 236 236 236 237 237 237 237 234 232 231 231 232 233 234 235 236 238 239 240 240 241 241 240 240 240 240 241 242 243 244 246 247 248 249 249 250 251 253 255 257 259 260 261 262 263 264 265 265 265 265 265 265 265 265 266 267 268 269 270 272 273 275 276 278 280 282
207 208 210 211 213 215 216 218 220 222 224 225 226 227 228 229 231 233 234 236 237 238 238 237 236 236 236 235 233 232 232 233 234 235 236 237 239 240 241 242 242 242 242 241 240 240 241 243 244 245 247 248 249 250 251 251 251 253 255 257 258 259 261 263 265 266 268 269 269 269 268 267 267 266 267 267 268 269 270 272 273 275 277 278 280 282
207 209 210 212 214 215 216 218 220 222 223 225 227 227 228 230 232 233 234 235 236 237 237 235 234 234 234 235 235 235 234 234 235 236 237 238 240 242 243 244 244 243 242 241 241 241 241 243 244 246 247 248 250 251 252 252 253 253 255 256 258 259 261 264 266 268 269 271 271 272 271 270 269 268 268 268 269 270 271 272 274 276 277 279 281 283
208 210 211 213 214 216 217 219 220 222 224 225 227 228 229 230 231 232 233 234 235 235 234 233 232 232 233 234 236 237 237 237 237 238 239 240 241 243 244 245 245 245 243 241 240 240 241 242 244 245 247 248 250 251 252 253 253 254 255 256 258 260 262 265 267 268 269 271 272 273 273 272 271 269 269 269 269 270 272 273 275 276 278 280 281 283
208 211 212 214 216 217 219 221 222 224 225 227 228 229 229 230 230 231 231 232 233 233 233 232 232 232 232 233 235 236 238 239 240 241 242 243 243 244 245 246 245 244 242 241 240 240 241 242 243 245 246 248 249 250 251 252 253 254 255 256 259 261 263 265 267 268 269 270 272 273 273 273 272 270 269 270 270 271 273 274 276 277 278 280 282 283
Height
10563 10572 10583 10593 10599 10603 10606 10610 10615 10617 10618 10621 10626 10630 10633 10635 10637 10636 10634 10635 10637 10641 10647 10652 10655 10658 10660 10661 10662 10667 10670 10674 10679 10685 10688 10689 10691 10695 10699 10702 10706 10709 10712 10713 10715 10716 10717 10719 10722 10724 10726 10728 10729 10731 10734 10737 10740 10742 10745 10747 10750 10752 10754 10754 10755 10756 10758 10760 10762 10764 10765 10766 10767 10767 10768 10768 10768 10767 10767 10766 10766 10765 10764 10763 10762 10763
10557 10571 10583 10588 10591 10593 10597 10603 10608 10610 10612 10616 10621 10625 10628 10631 10632 10631 10629 10630 10632 10636 10641 10646 10650 10652 10653 10654 10659 10664 10668 10671 10676 10679 10683 10686 10688 10692 10696 10699 10702 10705 10706 10707 10709 10711 10713 10715 10717 10719 10721 10722 10724 10726 10729 10732 10734 10737 10739 10742 10745 10747 10748 10749 10750 10752 10754 10755 10758 10760 10762 10763 10764 10764 10764 10764 10764 10764 10763 10763 10762 10762 10761 10760 10760 10760
10556 10570 10576 10578 10581 10586 10591 10597 10602 10604 10607 10611 10616 10619 10623 10625 10626 10626 10624 10625 10628 10630 10635 10640 10644 10646 10648 10652 10657 10662 10665 10668 10672 10676 10680 10683 10685 10688 10692 10695 10698 10700 10700 10702 10704 10707 10709 10711 10712 10714 10715 10716 10718 10720 10723 10727 10729 10730 10733 10736 10739 10742 10743 10745 10746 10747 10750 10752 10754 10756 10759 10760 10760 10761 10760 10759 10759 10759 10760 10759 10759 10759 10758 10758 10757 10757
10553 10563 10566 10569 10574 10579 10585 10592 10596 10599 10602 10607 10612 10616 10619 10620 10621 10621 10619 10620 10622 10625 10629 10634 10638 10642 10647 10651 10655 10658 10661 10665 10668 10671 10675 10678 10681 10683 10687 10691 10693 10694 10695 10698 10701 10703 10705 10707 10707 10708 10709 10710 10711 10714 10719 10722 10723 10725 10728 10731 10734 10737 10739 10740 10741 10744 10746 10748 10750 10753 10755 10756 10756 10757 10755 10755 10755 10755 10756 10756 10756 10755 10755 10754 10754 10754
10545 10553 10556 10561 10567 10573 10580 10586 10591 10595 10599 10604 10607 10611 10613 10614 10616 10615 10612 10613 10616 10620 10625 10629 10634 10641 10646 10650 10652 10655 10658 10661 10663 10666 10669 10673 10675 10679 10682 10685 10688 10689 10691 10694 10696 10698 10700 10702 10702 10703 10704 10705 10707 10710 10714 10716 10718 10720 10724 10726 10729 10732 10734 10735 10737 10740 10742 10745 10747 10749 10751 10751 10753 10753 10751 10751 10751 10751 10752 10752 10752 10752 10751 10751 10751 10750
10537 10543 10547 10553 10560 10567 10575 10581 10586 10590 10594 10598 10603 10607 10608 10608 10610 10609 10607 10609 10612 10617 10621 10625 10632 10640 10645 10647 10649 10651 10654 10657 10660 10663 10666 10669 10671 10674 10677 10680 10683 10685 10687 10690 10691 10693 10696 10697 10698 10698 10699 10701 10703 10706 10708 10711 10714 10717 10720 10722 10724 10726 10729 10731 10733 10736 10739 10742 10744 10746 10748 10748 10749 10749 10748 10747 10747 10747 10748 10749 10749 10749 10748 10747 10747 10747
10529 10534 10539 10547 10554 10561 10569 10575 10580 10584 10588 10593 10598 10600 10600 10602 10604 10603 10604 10606 10610 10615 10617 10621 10629 10637 10640 10642 10644 10646 10649 10653 10657 10660 10662 10664 10667 10669 10672 10675 10678 10680 10683 10685 10686 10689 10691 10692 10694 10695 10696 10698 10700 10702 10704 10707 10710 10713 10716 10719 10720 10721 10723 10726 10729 10732 10737 10740 10744 10746 10745 10745 10745 10746 10745 10743 10744 10744 10744 10745 10745 10745 10744 10744 10744 10744
10524 10528 10534 10542 10547 10555 10564 10571 10575 10578 10583 10588 10592 10592 10594 10596 10597 10598 10600 10603 10607 10610 10612 10618 10627 10633 10637 10638 10639 10642 10647 10651 10654 10656 10657 10659 10661 10664 10667 10670 10673 10676 10678 10679 10681 10684 10686 10689 10690 10691 10692 10694 10696 10698 10700 10703 10706 10710 10713 10715 10716 10717 10719 10722 10726 10730 10735 10741 10746 10746 10741 10739 10739 10739 10740 10740 10739 10739 10739 10740 10741 10741 10741 10740 10741 10741
10517 10522 10529 10536 10542 10552 10560 10565 10568 10571 10577 10583 10583 10584 10587 10588 10589 10592 10597 10600 10602 10605 10611 10618 10625 10631 10634 10634 10636 10641 10646 10648 10650 10652 10652 10654 10656 10659 10662 10665 10668 10671 10673 10674 10676 10679 10682 10685 10687 10687 10688 10690 10693 10695 10696 10699 10702 10706 10710 10711 10711 10713 10716 10719 10723 10728 10735 10740 10742 10741 10736 10733 10733 10733 10734 10735 10735 10735 10735 10736 10737 10736 10736 10736 10737 10738
10507 10515 10520 10527 10537 10547 10554 10558 10560 10565 10572 10574 10573 10576 10579 10580 10584 10589 10595 10597 10598 10605 10613 10619 10623 10628 10630 10631 10635 10641 10644 10644 10645 10646 10647 10649 10651 10654 10657 10660 10663 10666 10668 10669 10671 10675 10679 10680 10682 10684 10685 10687 10689 10691 10693 10696 10699 10703 10706 10707 10708 10710 10713 10716 10720 10726 10733 10734 10734 10734 10731 10728 10727 10728 10729 10730 10730 10731 10731 10732 10732 10732 10732 10732 10733 10733
10499 10505 10510 10521 10532 10539 10544 10547 10552 10559 10563 10561 10564 10570 10572 10575 10581 10587 10592 10594 10598 10609 10616 10617 10620 10625 10627 10629 10634 10638 10638 10637 10637 10639 10642 10644 10647 10650 10653 10655 10658 10660 10662 10664 10667 10672 10674 10675 10678 10680 10682 10684 10686 10688 10691 10693 10696 10698 10700 10703 10705 10707 10711 10713 10717 10723 10728 10728 10728 10730 10728 10724 10723 10724 10725 10725 10726 10727 10727 10727 10727 10727 10728 10729 10728 10728
10490 10497 10508 10520 10526 10529 10534 10538 10545 10552 10552 10553 10560 10565 10566 10572 10578 10584 10590 10593 10602 10613 10614 10612 10616 10621 10625 10628 10630 10632 10630 10630 10632 10636 10638 10640 10643 10646 10648 10650 10653 10656 10658 10660 10664 10668 10670 10671 10674 10676 10678 10680 10682 10685 10687 10690 10692 10694 10696 10699 10701 10704 10708 10710 10713 10718 10722 10723 10724 10725 10724 10721 10719 10720 10721 10721 10722 10722 10722 10722 10722 10723 10724 10724 10724 10723
10486 10496 10506 10513 10516 10521 10528 10533 10540 10544 10544 10549 10556 10560 10565 10571 10577 10584 10591 10597 10606 10611 10607 10607 10612 10618 10623 10624 10623 10624 10624 10625 10629 10632 10634 10637 10640 10642 10643 10646 10649 10652 10654 10657 10660 10664 10666 10668 10669 10672 10674 10676 10678 10681 10684 10686 10688 10690 10693 10695 10697 10701 10704 10706 10708 10713 10717 10719 10720 10721 10720 10717 10716 10716 10717 10717 10718 10718 10718 10717 10718 10720 10720 10720 10720 10719
10480 10489 10497 10504 10511 10519 10526 10533 10542 10545 10545 10551 10557 10561 10566 10572 10579 10587 10592 10597 10603 10605 10601 10603 10609 10616 10620 10619 10619 10619 10619 10621 10625 10629 10632 10635 10637 10639 10640 10643 10647 10650 10651 10654 10656 10660 10662 10664 10665 10668 10670 10672 10675 10678 10680 10682 10684 10686 10689 10691 10694 10696 10699 10700 10703 10707 10711 10713 10714 10716 10715 10712 10712 10712 10712 10713 10713 10713 10713 10713 10714 10715 10715 10716 10715 10714
10476 10486 10497 10506 10513 10520 10528 10535 10541 10542 10543 10549 10555 10559 10565 10572 10579 10585 10589 10594 10599 10598 10596 10600 10608 10614 10617 10616 10615 10614 10615 10618 10623 10627 10631 10633 10634 10636 10637 10640 10643 10646 10647 10649 10652 10655 10658 10660 10661 10663 10666 10668 10672 10674 10676 10679 10681 10683 10685 10687 10689 10691 10693 10695 10698 10701 10704 10706 10708 10709 10709 10707 10707 10707 10707 10708 10708 10708 10709 10709 10710 10710 10710 10711 10711 10709
10472 10485 10497 10504 10510 10517 10525 10530 10532 10532 10535 10542 10548 10554 10563 10570 10575 10578 10583 10589 10592 10592 10593 10599 10607 10610 10612 10611 10609 10610 10614 10617 10621 10625 10627 10629 10630 10631 10633 10636 10638 10640 10643 10645 10648 10650 10653 10655 10658 10660 10662 10665 10668 10671 10673 10675 10677 10679 10681 10683 10685 10687 10689 10691 10693 10695 10697 10699 10701 10702 10703 10702 10702 10703 10703 10703 10703 10704 10704 10704 10705 10705 10706 10706 10706 10705
10468 10479 10486 10493 10502 10510 10517 10521 10524 10528 10533 10538 10545 10554 10561 10564 10568 10573 10579 10583 10586 10589 10592 10598 10603 10605 10607 10607 10605 10609 10613 10614 10617 10621 10623 10625 10627 10627 10629 10631 10633 10635 10639 10641 10644 10646 10648 10651 10654 10656 10657 10660 10665 10667 10669 10672 10674 10676 10678 10679 10681 10683 10685 10687 10689 10690 10691 10693 10695 10696 10697 10697 10697 10698 10698 10698 10698 10699 10699 10699 10700 10700 10701 10701 10700 10700
10463 10471 10478 10487 10496 10503 10508 10512 10516 10521 10527 10536 10546 10552 10553 10556 10563 10569 10574 10579 10583 10587 10591 10596 10599 10601 10603 10603 10604 10608 10609 10610 10613 10617 10619 10622 10623 10623 10625 10626 10628 10632 10635 10638 10640 10642 10644 10646 10649 10652 10654 10657 10661 10664 10666 10668 10670 10672 10674 10675 10677 10679 10680 10682 10684 10685 10686 10688 10690 10691 10692 10692 10692 10693 10693 10693 10693 10693 10693 10694 10694 10695 10695 10695 10695 10694
10454 10461 10472 10481 10488 10493 10498 10502 10509 10516 10523 10532 10540 10543 10546 10554 10562 10567 10572 10577 10581 10585 10589 10592 10595 10598 10600 10600 10602 10603 10604 10605 10609 10613 10615 10616 10617 10619 10621 10622 10625 10629 10633 10635 10635 10637 10639 10642 10645 10648 10650 10653 10657 10660 10662 10664 10666 10668 10670 10671 10673 10675 10677 10678 10680 10681 10682 10683 10685 10686 10687 10687 10688 10688 10689 10689 10689 10689 10689 10689 10689 10689 10690 10690 10689 10689
10447 10456 10466 10473 10478 10482 10488 10497 10508 10516 10522 10528 10533 10536 10543 10551 10557 10563 10569 10573 10578 10582 10585 10588 10592 10594 10596 10597 10597 10598 10599 10602 10606 10609 10611 10612 10614 10617 10618 10619 10622 10627 10630 10630 10631 10634 10636 10639 10642 10645 10647 10650 10654 10656 10658 10660 10662 10664 10666 10667 10670 10672 10673 10675 10676 10677 10678 10679 10680 10681 10682 10682 10683 10683 10684 10684 10684 10684 10684 10684 10684 10685 10685 10685 10685 10684
10442 10453 10460 10464 10468 10476 10488 10502 10512 10516 10521 10528 10533 10538 10543 10548 10554 10559 10564 10568 10574 10578 10581 10585 10588 10590 10592 10593 10594 10595 10597 10600 10603 10606 10608 10610 10611 10613 10614 10615 10618 10623 10626 10626 10628 10630 10633 10636 10639 10641 10644 10647 10650 10652 10654 10657 10659 10661 10662 10664 10666 10668 10670 10671 10672 10674 10675 10675 10676 10677 10677 10678 10678 10678 10678 10678 10678 10679 10679 10679 10680 10680 10681 10681 10680 10679
10440 10448 10452 10459 10470 10483 10496 10504 10506 10509 10516 10524 10530 10535 10540 10546 10552 10557 10561 10567 10571 10575 10578 10581 10584 10585 10587 10589 10591 10592 10594 10597 10599 10602 10604 10606 10607 10609 10610 10612 10615 10619 10622 10623 10625 10627 10630 10633 10635 10638 10640 10643 10646 10649 10651 10653 10655 10657 10659 10661 10663 10665 10667 10668 10669 10670 10671 10672 10672 10673 10673 10673 10673 10674 10674 10673 10674 10674 10674 10674 10675 10675 10676 10676 10675 10674
10432 10439 10447 10460 10473 10483 10490 10493 10494 10500 10508 10514 10520 10526 10533 10542 10548 10554 10560 10564 10568 10572 10575 10578 10580 10582 10583 10585 10587 10588 10591 10593 10594 10598 10601 10603 10604 10606 10608 10610 10612 10615 10617 10620 10622 10625 10627 10630 10632 10635 10637 10640 10643 10645 10647 10650 10652 10654 10655 10657 10659 10661 10663 10664 10665 10666 10667 10668 10668 10669 10669 10669 10669 10669 10669 10669 10669 10669 10669 10669 10670 10670 10670 10670 10669 10669
10427 10435 10446 10457 10466 10472 10477 10481 10486 10493 10501 10508 10516 10523 10531 10539 10545 10550 10555 10559 10564 10569 10572 10574 10577 10578 10580 10582 10584 10587 10589 10590 10591 10595 10599 10600 10601 10604 10606 10608 10610 10611 10613 10617 10620 10622 10624 10626 10628 10631 10633 10635 10638 10641 10644 10646 10648 10650 10651 10653 10656 10657 10659 10660 10661 10662 10663 10664 10664 10664 10665 10665 10665 10665 10665 10665 10665 10664 10664 10664 10664 10665 10665 10664 10664 10663
10424 10432 10442 10451 10457 10463 10469 10473 10481 10491 10501 10510 10517 10523 10530 10535 10540 10545 10550 10556 10562 10565 10569 10571 10572 10574 10576 10578 10581 10585 10587 10588 10589 10592 10595 10597 10599 10601 10603 10605 10607 10608 10609 10612 10615 10619 10621 10622 10624 10626 10629 10631 10634 10638 10640 10642 10644 10645 10647 10649 10652 10653 10654 10656 10657 10658 10659 10660 10660 10660 10661 10661 10661 10661 10661 10660 10660 10659 10659 10659 10659 10659 10659 10658 10657 10657
10421 10429 10440 10451 10460 10469 10475 10482 10491 10500 10506 10511 10516 10522 10527 10531 10537 10543 10548 10554 10558 10562 10566 10567 10567 10570 10572 10574 10579 10582 10583 10585 10587 10589 10591 10594 10595 10596 10598 10601 10603 10604 10606 10608 10611 10614 10617 10619 10620 10622 10625 10627 10630 10633 10635 10637 10639 10641 10642 10645 10647 10648 10650 10651 10653 10654 10655 10656 10656 10656 10657 10657 10657 10656 10656 10655 10655 10654 10654 10654 10654 10653 10653 10652 10651 10650
10424 10435 10445 10456 10465 10474 10481 10489 10495 10499 10504 10509 10514 10519 10524 10529 10534 10540 10545 10551 10555 10559 10561 10562 10564 10567 10569 10572 10575 10578 10580 10582 10583 10585 10588 10589 10591 10592 10595 10597 10599 10601 10603 10606 10608 10611 10613 10614 10616 10618 10620 10622 10625 10628 10630 10632 10634 10636 10638 10640 10642 10644 10645 10647 10648 10649 10651 10652 10652 10652 10653 10653 10652 10652 10651 10650 10650 10649 10649 10648 10648 10647 10646 10646 10645 10644
10427 10438 10447 10455 10460 10466 10474 10481 10487 10492 10498 10504 10509 10515 10520 10526 10531 10537 10543 10548 10552 10555 10557 10558 10560 10563 10566 10569 10571 10574 10577 10579 10580 10582 10583 10585 10588 10590 10592 10594 10596 10598 10600 10603 10605 10607 10608 10610 10612 10614 10616 10618 10621 10623 10626 10628 10629 10631 10634 10635 10637 10639 10641 10642 10643 10644 10646 10647 10647 10648 10648 10648 10648 10647 10646 10645 10645 10644 10643 10643 10642 10641 10640 10639 10639 10637
10427 10435 10444 10451 10457 10463 10469 10474 10480 10487 10493 10498 10504 10510 10516 10522 10528 10534 10539 10544 10548 10551 10553 10554 10557 10560 10563 10565 10568 10570 10573 10575 10576 10577 10579 10583 10586 10589 10590 10591 10593 10596 10597 10599 10601 10603 10604 10606 10608 10610 10612 10614 10617 10619 10622 10623 10625 10627 10629 10631 10632 10634 10636 10637 10638 10640 10641 10641 10642 10643 10643 10643 10643 10642 10641 10640 10640 10639 10638 10637 10636 10635 10634 10634 10633 10631
10427 10434 10441 10449 10456 10463 10467 10472 10477 10482 10487 10493 10500 10506 10511 10518 10524 10530 10535 10540 10545 10547 10549 10551 10555 10557 10560 10563 10565 10568 10569 10571 10573 10575 10578 10582 10584 10586 10587 10588 10589 10592 10593 10596 10598 10599 10600 10602 10604 10606 10608 10610 10612 10615 10617 10619 10620 10622 10624 10626 10627 10630 10631 10632 10634 10635 10636 10636 10637 10638 10638 10638 10638 10637 10636 10635 10635 10635 10634 10633 10631 10630 10629 10628 10627 10626
10427 10433 10440 10447 10454 10460 10465 10471 10476 10479 10484 10490 10495 10501 10507 10514 10520 10526 10531 10536 10540 10542 10544 10548 10551 10553 10557 10560 10562 10565 10567 10568 10570 10572 10575 10578 10580 10582 10583 10584 10585 10587 10589 10592 10594 10595 10596 10598 10600 10602 10604 10605 10608 10611 10613 10614 10616 10618 10620 10621 10623 10625 10627 10628 10629 10630 10631 10632 10633 10633 10633 10633 10633 10632 10631 10631 10630 10630 10629 10628 10626 10625 10624 10622 10621 10620
10426 10432 10439 10446 10452 10457 10463 10469 10474 10478 10482 10487 10492 10499 10505 10512 10518 10522 10526 10530 10534 10537 10541 10545 10548 10551 10554 10556 10559 10561 10563 10565 10567 10569 10571 10574 10576 10577 10579 10580 10581 10583 10585 10588 10589 10590 10592 10593 10596 10598 10600 10602 10605 10607 10609 10610 10612 10614 10615 10617 10618 10620 10622 10623 10625 10626 10627 10628 10628 10629 10629 10629 10628 10628 10627 10626 10625 10624 10624 10623 10621 10620 10618 10616 10615 10615
10424 10431 10437 10444 10451 10456 10462 10468 10472 10476 10480 10485 10491 10498 10504 10510 10514 10518 10522 10526 10530 10534 10539 10543 10546 10549 10552 10553 10555 10557 10559 10561 10562 10564 10566 10569 10571 10572 10574 10576 10578 10579 10582 10584 10585 10586 10587 10589 10593 10596 10597 10598 10600 10602 10604 10606 10608 10610 10611 10612 10613 10615 10617 10619 10620 10621 10622 10623 10623 10624 10624 10624 10624 10623 10622 10621 10620 10619 10618 10617 10615 10613 10611 10610 10610 10609
10421 10428 10434 10442 10449 10455 10461 10466 10470 10473 10477 10484 10492 10497 10502 10507 10511 10515 10519 10524 10529 10533 10538 10541 10544 10547 10549 10550 10551 10553 10555 10556 10557 10559 10562 10564 10566 10568 10571 10573 10574 10575 10577 10578 10580 10582 10583 10586 10590 10593 10594 10593 10595 10597 10600 10602 10603 10604 10606 10607 10609 10611 10612 10614 10615 10616 10617 10618 10619 10619 10620 10619 10618 10617 10617 10616 10615 10614 10613 10611 10608 10606 10605 10604 10604 10603
10420 10426 10433 10440 10447 10452 10458 10463 10466 10471 10477 10483 10489 10494 10499 10504 10509 10513 10518 10523 10527 10532 10535 10539 10541 10543 10545 10546 10548 10550 10553 10554 10555 10556 10558 10560 10562 10564 10566 10567 10568 10569 10571 10574 10576 10578 10580 10583 10587 10589 10589 10589 10591 10593 10595 10597 10598 10599 10601 10603 10604 10606 10608 10608 10610 10611 10612 10614 10614 10614 10615 10614 10612 10611 10611 10611 10610 10609 10606 10604 10601 10599 10599 10599 10598 10597
10418 10425 10432 10439 10444 10449 10455 10460 10464 10470 10475 10481 10485 10490 10494 10499 10505 10510 10515 10519 10523 10528 10531 10534 10537 10539 10541 10542 10544 10546 10549 10551 10552 10552 10553 10555 10556 10558 10559 10560 10561 10563 10566 10569 10572 10574 10577 10579 10582 10584 10586 10587 10588 10589 10590 10592 10593 10594 10596 10597 10599 10601 10603 10604 10606 10608 10609 10610 10610 10609 10610 10609 10607 10605 10605 10605 10604 10602 10600 10597 10594 10593 10593 10593 10592 10592
10417 10424 10431 10436 10441 10446 10452 10458 10463 10467 10471 10475 10480 10485 10489 10495 10500 10505 10509 10513 10518 10522 10525 10528 10531 10534 10536 10537 10539 10541 10543 10545 10547 10547 10547 10548 10549 10550 10552 10553 10556 10559 10562 10565 10568 10571 10573 10574 10576 10579 10581 10582 10584 10585 10586 10588 10589 10589 10590 10592 10594 10596 10598 10600 10601 10603 10606 10607 10605 10604 10606 10606 10602 10600 10600 10600 10599 10596 10594 10590 10588 10587 10587 10587 10586 10585
10417 10424 10429 10433 10438 10444 10450 10455 10458 10461 10465 10470 10475 10480 10485 10491 10496 10500 10504 10508 10512 10515 10518 10521 10524 10527 10529 10532 10534 10535 10538 10540 10541 10540 10539 10540 10542 10544 10546 10549 10552 10555 10559 10562 10564 10567 10568 10570 10571 10573 10575 10579 10581 10581 10582 10584 10584 10584 10586 10588 10590 10592 10593 10594 10596 10599 10603 10603 10600 10601 10602 10601 10599 10597 10596 10594 10593 10591 10589 10585 10583 10582 10582 10582 10581 10580
10415 10421 10426 10430 10435 10441 10446 10450 10454 10458 10462 10467 10471 10476 10481 10486 10491 10495 10498 10502 10505 10509 10512 10515 10518 10521 10524 10526 10528 10531 10533 10534 10533 10532 10532 10534 10536 10539 10542 10545 10548 10552 10555 10558 10560 10563 10565 10566 10567 10568 10570 10574 10576 10576 10577 10579 10579 10580 10582 10584 10586 10587 10588 10589 10591 10593 10596 10596 10595 10596 10598 10596 10595 10594 10592 10590 10589 10586 10584 10581 10579 10577 10577 10577 10576 10575
10412 10417 10422 10427 10432 10438 10442 10446 10450 10455 10459 10463 10467 10471 10476 10481 10486 10490 10494 10498 10501 10504 10508 10511 10514 10517 10520 10522 10525 10527 10528 10527 10526 10526 10528 10530 10533 10536 10539 10542 10545 10548 10551 10553 10556 10559 10561 10562 10563 10563 10565 10568 10570 10572 10573 10574 10575 10576 10578 10579 10580 10582 10582 10584 10586 10586 10587 10588 10589 10591 10592 10591 10590 10590 10588 10586 10584 10580 10578 10577 10576 10574 10572 10571 10571 10570
10411 10416 10420 10424 10429 10434 10438 10442 10447 10452 10456 10459 10463 10467 10471 10476 10481 10486 10491 10495 10497 10500 10504 10507 10510 10513 10516 10518 10520 10521 10522 10522 10522 10523 10526 10529 10531 10533 10535 10538 10541 10543 10545 10548 10551 10553 10555 10556 10557 10559 10560 10562 10565 10568 10569 10569 10569 10571 10573 10573 10575 10576 10577 10578 10580 10580 10580 10581 10583 10585 10586 10586 10586 10586 10584 10580 10576 10573 10572 10572 10571 10570 10568 10567 10566 10565
10412 10416 10420 10424 10427 10431 10435 10440 10445 10450 10454 10457 10460 10464 10468 10473 10478 10483 10488 10491 10493 10496 10500 10503 10506 10509 10512 10513 10514 10516 10517 10518 10519 10520 10522 10525 10528 10529 10530 10533 10536 10538 10540 10543 10546 10548 10550 10552 10553 10554 10556 10557 10559 10561 10562 10563 10564 10565 10567 10568 10569 10571 10572 10573 10574 10574 10575 10575 10577 10579 10580 10580 10581 10580 10576 10572 10569 10568 10568 10568 10566 10565 10564 10563 10561 10559
10410 10415 10419 10422 10426 10430 10435 10439 10444 10448 10452 10455 10458 10461 10465 10470 10475 10479 10484 10487 10489 10492 10495 10498 10501 10504 10506 10508 10509 10510 10512 10513 10514 10516 10518 10521 10523 10524 10525 10528 10531 10533 10536 10538 10540 10542 10545 10547 10549 10550 10551 10552 10554 10555 10556 10558 10559 10559 10561 10562 10564 10565 10566 10567 10567 10568 10569 10570 10571 10572 10573 10573 10574 10573 10570 10567 10565 10564 10564 10563 10561 10560 10559 10558 10556 10554
10408 10413 10417 10421 10424 10429 10433 10436 10440 10445 10449 10451 10455 10458 10462 10466 10470 10474 10478 10481 10484 10488 10491 10494 10497 10499 10501 10502 10504 10505 10506 10507 10509 10511 10513 10515 10516 10518 10520 10523 10526 10528 10530 10533 10535 10537 10539 10542 10543 10544 10546 10547 10549 10550 10551 10553 10553 10554 10555 10557 10558 10559 10560 10561 10562 10563 10564 10564 10565 10565 10565 10566 10566 10566 10564 10562 10560 10559 10558 10557 10556 10555 10553 10552 10551 10549
10405 10410 10415 10419 10423 10427 10430 10434 10437 10441 10445 10449 10452 10455 10458 10461 10464 10468 10471 10475 10478 10482 10486 10489 10491 10493 10495 10496 10498 10499 10500 10501 10503 10505 10507 10509 10511 10513 10516 10519 10521 10523 10525 10527 10530 10532 10534 10536 10537 10539 10540 10542 10543 10545 10546 10547 10548 10549 10550 10551 10552 10553 10554 10555 10555 10556 10557 10558 10558 10559 10559 10559 10559 10558 10558 10557 10555 10553 10552 10551 10550 10548 10547 10546 10544 10543
10403 10408 10412 10415 10419 10422 10426 10430 10433 10437 10441 10445 10448 10451 10454 10457 10461 10464 10467 10469 10473 10477 10480 10483 10485 10487 10489 10491 10492 10493 10493 10495 10497 10499 10501 10504 10506 10507 10510 10513 10516 10518 10520 10522 10523 10525 10528 10530 10531 10533 10534 10536 10537 10539 10540 10542 10543 10544 10545 10546 10547 10548 10548 10548 10549 10550 10551 10551 10551 10551 10551 10551 10551 10551 10550 10549 10548 10547 10546 10545 10543 10542 10540 10539 10538 10536
10401 10405 10409 10412 10416 10419 10423 10427 10430 10433 10437 10440 10444 10448 10451 10454 10457 10460 10462 10465 10468 10471 10475 10477 10479 10481 10483 10484 10486 10487 10488 10489 10491 10493 10495 10498 10500 10502 10504 10508 10511 10513 10514 10516 10519 10521 10523 10524 10526 10528 10529 10530 10532 10533 10534 10536 10538 10539 10540 10541 10542 10542 10542 10542 10543 10544 10544 10544 10544 10544 10544 10544 10543 10543 10542 10542 10541 10540 10539 10538 10536 10535 10534 10533 10531 10530
10398 10402 10406 10410 10414 10417 10420 10424 10427 10430 10433 10437 10441 10445 10448 10450 10453 10455 10458 10460 10463 10466 10469 10472 10474 10475 10477 10478 10480 10482 10483 10485 10487 10488 10490 10492 10495 10497 10500 10503 10506 10508 10510 10512 10514 10516 10517 10519 10520 10522 10523 10524 10525 10527 10528 10531 10532 10533 10534 10535 10536 10536 10537 10537 10537 10538 10538 10538 10537 10537 10537 10536 10536 10535 10535 10535 10534 10533 10532 10531 10529 10529 10528 10526 10525 10523
10394 10398 10402 10406 10409 10412 10415 10418 10420 10423 10427 10431 10435 10439 10443 10446 10448 10450 10453 10455 10457 10459 10462 10465 10468 10470 10472 10473 10474 10476 10478 10480 10481 10482 10484 10488 10491 10494 10497 10499 10501 10503 10505 10507 10509 10510 10511 10513 10514 10516 10517 10518 10519 10521 10523 10525 10526 10527 10529 10529 10530 10530 10531 10531 10532 10532 10532 10531 10530 10530 10529 10529 10528 10528 10528 10527 10526 10525 10524 10524 10523 10522 10520 10519 10518 10516
10392 10395 10398 10401 10403 10406 10409 10411 10414 10418 10422 10426 10430 10434 10438 10440 10443 10445 10447 10449 10450 10452 10455 10458 10462 10464 10466 10467 10469 10470 10472 10475 10476 10477 10480 10484 10488 10490 10493 10495 10497 10498 10500 10501 10503 10504 10505 10506 10507 10509 10510 10512 10513 10515 10517 10518 10520 10522 10523 10523 10524 10525 10525 10526 10526 10526 10525 10524 10524 10523 10522 10521 10521 10521 10520 10519 10519 10518 10517 10517 10516 10515 10513 10512 10511 10510
10389 10392 10395 10397 10400 10403 10406 10409 10413 10417 10420 10424 10427 10430 10432 10435 10437 10440 10442 10443 10444 10446 10449 10452 10455 10458 10460 10462 10463 10465 10467 10469 10471 10472 10475 10480 10483 10486 10489 10490 10491 10492 10493 10494 10496 10497 10498 10499 10500 10502 10504 10505 10507 10509 10511 10512 10514 10516 10517 10518 10519 10520 10519 10519 10519 10518 10518 10517 10517 10516 10515 10515 10514 10514 10513 10512 10512 10511 10511 10510 10509 10507 10506 10505 10504 10503